Wind_Speed
21 22 23 24 24 24 24 23 22 20 19 18 17 15 13 11 9 7 6 5 6 8 10 11 13 15 17 19 21 22 24 25 27 28 30 30 30 33 34 35 35 35 36
20 21 22 23 23 24 24 24 23 21 20 19 18 16 14 12 10 8 6 5 5 5 7 9 11 13 15 18 20 22 23 24 25 27 28 29 29 31 32 33 34 34 35
20 21 21 22 23 23 23 23 22 22 21 20 19 17 15 13 11 9 7 6 5 5 6 7 9 11 13 15 18 21 23 24 24 26 26 27 27 29 31 32 33 33 34
19 20 21 21 22 22 22 22 22 21 21 20 19 17 16 14 12 10 8 6 5 5 5 5 7 8 10 12 15 17 20 22 23 24 25 25 26 27 28 30 30 32 34
18 19 20 21 21 21 21 21 21 21 20 20 19 18 16 15 13 11 10 8 7 7 6 6 5 6 8 10 11 13 16 19 21 22 23 24 24 25 26 28 29 29 30
17 18 19 20 21 21 21 20 20 20 20 19 18 17 16 15 14 12 11 10 9 9 8 7 6 6 6 8 10 12 13 16 18 19 21 22 23 25 26 27 28 28 28
17 18 18 19 20 20 20 20 20 20 20 19 18 17 16 15 14 13 12 11 10 10 9 8 7 6 6 7 8 10 11 13 16 18 20 20 22 24 24 25 27 27 27
17 17 18 19 19 19 19 19 19 19 19 19 18 18 17 15 14 13 12 12 11 10 10 9 8 7 7 7 8 9 10 12 15 17 19 20 20 21 23 24 25 26 27
17 17 18 18 19 19 19 18 18 18 18 18 18 17 16 16 15 14 13 12 11 11 10 10 9 9 8 8 8 9 10 12 13 14 17 19 19 20 21 22 23 24 24
17 18 18 18 19 19 18 18 18 18 18 18 17 17 16 15 15 14 14 14 13 12 11 10 10 10 10 10 10 10 11 11 12 13 15 17 18 19 20 21 22 23 24
18 18 18 19 19 19 19 19 18 19 18 18 18 17 16 16 15 15 14 14 14 13 13 12 12 11 11 11 11 11 12 13 13 14 15 17 18 19 20 20 21 22 23
18 18 19 19 19 19 19 19 19 19 19 18 18 18 17 17 16 16 15 15 15 14 14 13 13 13 12 12 12 12 12 13 13 15 15 16 18 19 20 21 22 22 23
19 19 20 20 20 20 20 20 20 20 19 19 19 18 18 18 18 17 17 16 16 15 15 15 14 14 14 13 13 13 13 14 14 15 16 17 18 19 20 21 22 23 24
20 20 21 21 21 21 21 21 21 21 20 21 21 20 20 20 19 19 19 18 18 17 17 16 16 16 15 15 15 15 16 16 17 17 17 18 19 19 20 21 22 22 23
22 22 22 22 22 22 22 22 22 22 22 22 22 22 22 21 21 21 20 20 20 20 19 19 18 18 18 17 17 18 18 18 19 19 20 20 21 21 22 22 23 24 24
23 23 23 23 23 23 24 24 24 24 24 24 24 24 24 24 23 23 22 22 21 21 21 21 21 21 21 21 21 21 21 21 21 22 22 23 23 23 24 24 25 26 26
25 25 25 25 25 25 25 26 26 26 26 26 26 26 25 25 25 24 24 24 23 23 23 22 22 22 23 23 23 23 24 24 24 24 24 25 25 26 26 26 27 27 27
27 26 26 27 27 27 27 28 28 28 28 28 28 28 27 27 26 26 26 26 25 25 25 25 24 24 24 24 25 25 26 27 27 27 27 27 27 28 28 29 29 29 30
29 29 29 29 29 29 30 30 30 30 30 30 30 30 29 29 28 28 28 28 27 27 27 27 27 27 27 27 28 28 29 29 29 30 30 30 30 30 31 31 31 31 31
31 31 31 31 31 31 31 32 31 31 31 31 31 31 31 31 30 30 30 30 30 30 30 30 30 29 30 30 31 32 32 32 32 33 33 34 34 34 34 34 34 34 34
33 34 33 33 33 33 33 33 33 33 33 32 33 33 33 32 32 32 32 32 32 32 32 33 33 33 34 34 34 35 35 35 36 37 37 37 38 38 38 38 38 38 38
36 36 36 35 35 35 35 35 35 35 35 34 35 34 34 34 34 34 34 34 34 34 35 35 36 36 37 37 38 38 39 39 39 40 40 41 41 42 42 42 42 42 41
38 38 38 37 37 37 37 37 37 37 37 37 36 36 36 36 36 36 36 36 37 37 38 38 38 39 39 40 41 41 42 42 43 43 43 43 44 45 45 45 45 45 45
40 40 39 39 39 39 39 39 39 38 38 38 38 38 37 37 38 38 38 39 39 39 40 40 40 41 42 43 44 45 45 46 46 47 47 46 46 47 47 47 47 47 47
43 42 42 42 41 41 41 40 40 40 40 40 40 40 40 40 40 40 41 40 40 41 41 42 42 43 44 45 46 47 48 48 49 49 49 49 49 48 48 48 48 48 48
44 44 44 43 42 42 42 42 41 41 41 41 41 41 42 42 42 43 43 42 42 43 43 44 45 46 47 48 48 49 49 50 50 50 50 50 50 50 50 49 49 49 50
Wind_Direction
7 7 8 9 11 12 12 12 11 11 11 11 10 8 6 2 357 351 340 314 278 256 248 243 238 236 236 236 235 234 234 234 235 234 235 233 236 238 239 240 242 242 243
5 6 7 8 9 11 12 13 14 14 13 12 10 9 8 6 4 358 350 336 318 285 259 249 242 239 239 237 236 235 235 234 234 234 236 235 236 237 239 240 241 242 244
3 5 6 6 8 10 12 13 14 14 14 14 13 12 12 10 8 7 2 350 333 317 296 272 257 251 246 243 240 238 237 235 235 236 236 236 239 238 238 241 242 243 244
1 2 4 4 6 8 9 11 12 13 14 15 14 15 14 14 13 10 6 360 345 329 319 296 272 258 252 249 245 242 241 238 238 239 239 239 241 242 242 243 244 245 244
356 358 0 2 3 5 6 8 10 12 13 13 13 14 15 15 14 13 10 4 354 345 334 320 296 276 260 253 250 245 242 241 240 241 241 243 243 245 245 247 247 248 248
351 354 356 358 359 1 2 5 7 9 11 10 10 11 12 12 12 12 10 6 1 354 346 334 317 299 282 266 258 252 248 246 245 244 244 246 246 247 247 249 251 252 253
346 349 351 353 355 357 359 1 3 5 7 9 10 10 9 9 9 8 6 3 359 355 350 342 331 314 297 282 271 263 256 254 252 249 248 250 248 248 248 250 252 253 256
341 344 346 348 351 353 355 357 359 1 3 4 5 6 7 6 5 3 2 358 355 352 348 343 336 325 312 297 283 274 266 262 258 255 253 252 252 252 252 253 255 256 258
336 339 341 343 346 349 350 352 354 355 357 358 358 360 1 2 1 359 357 354 351 347 344 339 333 326 317 309 297 283 274 270 266 261 260 257 257 257 258 258 259 259 258
330 333 337 338 340 342 344 345 347 348 350 352 351 352 353 353 353 351 349 347 344 341 338 334 330 324 315 308 300 292 285 280 276 271 267 264 262 260 261 261 261 260 260
324 327 331 333 334 335 337 338 339 341 343 345 346 345 344 344 344 342 341 340 338 336 333 330 326 321 316 311 305 299 292 287 283 279 275 271 267 266 264 262 262 263 263
319 321 324 326 329 330 330 332 333 335 336 338 339 339 338 336 334 333 332 331 330 328 326 324 324 319 313 310 307 303 299 294 290 286 281 278 273 271 269 266 265 266 267
313 316 318 320 323 324 325 326 327 329 331 332 332 331 330 329 328 326 324 322 321 320 319 318 317 318 315 307 302 301 298 295 292 290 286 281 277 274 273 272 271 270 269
308 310 313 315 317 319 320 322 323 324 325 326 326 325 323 322 321 321 319 317 315 313 311 309 308 308 307 305 301 298 295 294 292 291 288 284 282 280 278 277 275 274 275
303 306 308 310 313 314 315 317 319 320 320 321 321 320 319 317 317 315 314 313 312 309 306 303 301 298 298 297 296 294 292 292 291 290 288 286 284 282 281 279 277 276 275
299 300 302 305 307 309 310 311 313 314 315 315 315 315 315 314 312 311 310 310 308 306 304 301 298 295 293 292 291 291 290 289 287 286 285 285 284 282 280 278 277 276 275
294 296 298 300 303 305 307 307 309 310 311 311 311 311 311 311 310 309 307 306 305 303 301 300 297 294 292 290 289 288 288 287 286 284 282 282 282 282 281 279 277 276 276
291 293 295 297 299 301 303 304 305 306 308 308 308 308 308 308 307 307 306 304 302 300 299 298 296 293 291 290 288 288 287 286 285 284 283 282 281 280 280 279 278 277 276
289 291 293 294 296 298 300 301 302 303 304 304 305 305 305 305 304 303 303 302 300 298 297 297 296 293 291 290 289 288 287 286 285 284 283 282 281 280 279 279 278 277 276
286 288 290 292 294 295 297 299 300 300 301 301 302 302 302 302 301 301 300 299 298 297 295 294 294 293 291 290 289 288 287 285 284 283 282 281 281 280 279 278 277 276 275
284 286 288 290 291 293 294 296 297 298 298 299 299 300 299 299 299 298 298 298 297 295 294 293 292 291 290 290 289 288 287 286 284 283 282 281 280 279 278 277 276 275 274
283 285 287 288 289 291 292 294 295 296 296 297 297 297 297 297 297 297 296 296 295 295 294 292 291 291 290 290 289 288 287 286 285 283 282 281 280 279 277 276 275 274 273
282 283 285 286 287 289 290 291 293 294 294 295 295 296 296 296 296 296 295 294 294 294 294 293 292 291 291 290 290 289 288 287 286 285 284 282 281 279 278 277 275 274 273
280 281 283 284 286 287 288 290 291 292 293 294 295 295 295 295 296 296 295 295 295 294 294 294 293 292 292 291 291 290 289 287 286 285 285 283 282 280 278 276 275 274 273
278 280 281 283 284 285 287 288 290 291 292 293 294 294 294 295 295 295 295 295 294 294 294 294 294 294 293 293 292 291 290 289 287 286 285 284 283 281 279 277 275 274 273
277 279 280 281 283 284 286 287 288 290 291 292 293 293 294 295 295 295 295 295 295 295 295 296 296 295 295 294 293 292 291 290 289 288 286 285 283 282 280 278 276 274 273
Height
5810 5806 5802 5797 5793 5788 5783 5778 5774 5769 5765 5762 5758 5755 5753 5751 5749 5748 5747 5747 5747 5747 5748 5749 5751 5752 5754 5756 5759 5761 5764 5767 5771 5774 5777 5781 5784 5788 5790 5793 5796 5800 5803
5811 5807 5802 5798 5794 5789 5784 5780 5775 5771 5767 5763 5759 5756 5753 5751 5749 5748 5747 5746 5746 5746 5746 5747 5748 5749 5750 5752 5754 5756 5759 5762 5765 5768 5771 5774 5777 5780 5783 5786 5789 5792 5795
5811 5807 5803 5799 5794 5790 5785 5781 5777 5772 5768 5764 5761 5757 5754 5752 5750 5748 5747 5746 5745 5745 5744 5744 5745 5746 5747 5748 5750 5752 5754 5756 5759 5762 5765 5768 5771 5773 5776 5779 5782 5784 5786
5811 5807 5803 5799 5795 5791 5786 5782 5778 5774 5770 5766 5762 5759 5756 5753 5751 5749 5747 5746 5745 5744 5744 5743 5743 5744 5744 5745 5746 5747 5749 5752 5754 5757 5759 5762 5765 5767 5770 5772 5774 5776 5778
5810 5807 5803 5799 5795 5791 5787 5783 5779 5775 5771 5767 5764 5760 5757 5754 5752 5750 5748 5746 5745 5744 5743 5742 5742 5742 5742 5742 5743 5744 5746 5748 5750 5752 5754 5757 5759 5761 5763 5765 5767 5769 5771
5809 5806 5803 5799 5795 5791 5787 5784 5780 5776 5772 5768 5765 5761 5758 5756 5753 5751 5749 5747 5745 5744 5743 5741 5741 5740 5740 5740 5741 5742 5743 5744 5746 5747 5749 5751 5753 5755 5757 5758 5760 5762 5764
5808 5805 5802 5798 5795 5791 5787 5784 5780 5776 5773 5769 5766 5762 5759 5756 5754 5751 5749 5747 5746 5744 5742 5741 5740 5739 5738 5738 5739 5739 5740 5740 5742 5743 5744 5745 5747 5749 5750 5752 5753 5755 5757
5806 5803 5800 5797 5794 5790 5787 5783 5780 5776 5773 5769 5766 5763 5760 5757 5754 5752 5750 5748 5746 5744 5742 5741 5739 5738 5737 5737 5737 5737 5737 5737 5738 5739 5739 5740 5741 5742 5744 5745 5746 5748 5749
5804 5801 5798 5795 5792 5789 5786 5782 5779 5776 5772 5769 5766 5763 5760 5757 5754 5752 5750 5747 5745 5744 5742 5740 5739 5737 5736 5735 5735 5734 5734 5734 5734 5734 5734 5735 5736 5737 5738 5739 5740 5742 5743
5801 5799 5796 5793 5790 5787 5784 5781 5778 5775 5772 5768 5765 5762 5759 5757 5754 5751 5749 5747 5744 5743 5741 5739 5737 5736 5735 5734 5733 5732 5732 5731 5731 5730 5730 5730 5730 5731 5732 5733 5734 5735 5736
5798 5796 5793 5790 5787 5784 5781 5779 5776 5773 5770 5767 5764 5761 5758 5755 5753 5750 5748 5745 5743 5741 5739 5737 5736 5734 5733 5732 5730 5730 5729 5728 5727 5727 5726 5726 5726 5726 5726 5727 5727 5728 5729
5794 5792 5790 5787 5784 5781 5779 5776 5773 5770 5767 5764 5762 5759 5756 5753 5751 5748 5746 5744 5741 5739 5737 5735 5734 5732 5730 5729 5728 5727 5726 5725 5724 5723 5722 5722 5721 5721 5721 5721 5721 5721 5721
5790 5788 5786 5783 5780 5778 5775 5772 5770 5767 5764 5761 5759 5756 5753 5750 5748 5745 5743 5741 5739 5737 5735 5733 5731 5729 5727 5726 5725 5724 5723 5721 5720 5719 5718 5717 5717 5716 5716 5715 5715 5715 5714
5785 5783 5781 5778 5776 5773 5771 5768 5766 5763 5760 5758 5755 5752 5749 5747 5744 5742 5739 5737 5735 5733 5731 5729 5727 5726 5724 5722 5721 5720 5719 5717 5716 5715 5714 5712 5712 5711 5710 5709 5709 5708 5708
5780 5778 5776 5773 5771 5769 5766 5764 5761 5759 5756 5754 5751 5748 5745 5742 5740 5737 5735 5733 5730 5728 5726 5724 5723 5721 5719 5718 5716 5715 5714 5712 5711 5710 5709 5707 5706 5705 5704 5703 5702 5701 5701
5774 5772 5770 5768 5766 5763 5761 5758 5756 5753 5751 5748 5746 5743 5740 5737 5734 5732 5729 5727 5725 5723 5721 5719 5717 5715 5714 5712 5711 5709 5708 5706 5705 5704 5703 5701 5700 5699 5697 5696 5695 5694 5694
5767 5765 5764 5761 5759 5757 5754 5752 5749 5747 5744 5742 5739 5736 5734 5731 5728 5726 5723 5721 5719 5717 5715 5713 5711 5709 5707 5706 5704 5703 5701 5700 5698 5696 5695 5694 5693 5691 5690 5689 5688 5686 5686
5760 5758 5756 5754 5752 5750 5748 5745 5742 5740 5737 5734 5732 5729 5726 5724 5721 5719 5716 5714 5712 5709 5707 5705 5703 5702 5700 5698 5696 5695 5693 5692 5690 5688 5687 5686 5684 5683 5682 5680 5679 5678 5677
5751 5750 5748 5746 5745 5742 5740 5738 5735 5733 5730 5727 5724 5721 5719 5716 5713 5711 5709 5706 5704 5702 5700 5697 5695 5693 5692 5690 5688 5686 5684 5683 5681 5679 5678 5676 5674 5673 5672 5671 5669 5668 5667
5742 5741 5740 5738 5736 5734 5732 5729 5727 5724 5722 5719 5716 5714 5711 5708 5705 5703 5700 5698 5695 5693 5691 5689 5687 5684 5682 5680 5678 5676 5674 5672 5670 5669 5667 5665 5664 5662 5661 5660 5658 5657 5656
5733 5731 5730 5728 5727 5725 5723 5720 5718 5715 5713 5710 5708 5705 5702 5699 5696 5694 5691 5688 5686 5683 5681 5679 5676 5674 5672 5669 5667 5665 5663 5661 5659 5657 5655 5653 5651 5650 5648 5647 5646 5645 5644
5722 5721 5720 5718 5716 5715 5713 5710 5708 5706 5703 5700 5698 5695 5692 5690 5687 5684 5681 5678 5676 5673 5670 5667 5665 5662 5660 5657 5655 5652 5650 5648 5645 5643 5641 5639 5637 5635 5634 5632 5631 5630 5629
5711 5710 5709 5707 5706 5704 5702 5700 5697 5695 5692 5690 5687 5684 5682 5679 5676 5673 5670 5667 5664 5661 5658 5655 5653 5650 5647 5644 5641 5638 5636 5633 5631 5628 5626 5624 5622 5620 5618 5616 5615 5614 5613
5699 5698 5697 5695 5694 5692 5690 5688 5686 5684 5681 5678 5676 5673 5670 5668 5665 5662 5659 5655 5652 5649 5646 5643 5639 5636 5633 5630 5627 5623 5620 5617 5615 5612 5609 5607 5605 5602 5601 5599 5598 5597 5596
5687 5686 5685 5683 5682 5680 5678 5676 5674 5672 5669 5667 5664 5661 5658 5655 5652 5649 5646 5643 5639 5636 5632 5629 5626 5622 5619 5615 5611 5608 5604 5600 5597 5594 5592 5589 5587 5585 5583 5581 5580 5579 5579
5674 5673 5671 5670 5669 5667 5665 5663 5661 5659 5657 5654 5651 5649 5646 5643 5639 5636 5633 5629 5626 5622 5619 5615 5611 5607 5603 5599 5595 5591 5587 5583 5579 5576 5573 5571 5569 5566 5564 5563 5562 5561 5560